This is the latest recevied weather packets stored in our database for station/object W4OTS. If no packets are shown the sender has not sent any weather packets the latest 10 day(s).
| Time | Temp. | Humidity | Pressure | Rain* | Wind** | Luminosity | Snow |
|---|---|---|---|---|---|---|---|
| 1778195778 | 17.22° C | 93% | 1012.8 hPa | 0 mm | - | 25 W/m² | - |
| 1778195475 | 17.22° C | 94% | 1012.7 hPa | 0 mm | - | 20 W/m² | - |
| 1778195171 | 17.22° C | 93% | 1012.7 hPa | 0 mm | - | 18 W/m² | - |
| 1778194869 | 17.78° C | 92% | 1012.3 hPa | 0 mm | - | 23 W/m² | - |
| 1778194563 | 17.78° C | 92% | 1012.5 hPa | 0 mm | - | 18 W/m² | - |
| 1778194260 | 17.78° C | 92% | 1012.4 hPa | 0 mm | - | 34 W/m² | - |
| 1778193956 | 17.78° C | 92% | 1012.1 hPa | 0 mm | - | 39 W/m² | - |
| 1778193652 | 17.78° C | 91% | 1012.1 hPa | 0 mm | - | 44 W/m² | - |
| 1778193348 | 17.78° C | 91% | 1011.9 hPa | 0 mm | - | 50 W/m² | - |
| 1778193046 | 17.78° C | 91% | 1011.6 hPa | 0 mm | - | 42 W/m² | - |
| 1778192743 | 17.78° C | 91% | 1011.4 hPa | 0 mm | - | 53 W/m² | - |
| 1778192439 | 17.78° C | 92% | 1011.6 hPa | 0 mm | - | 43 W/m² | - |
| 1778192135 | 17.78° C | 92% | 1011.5 hPa | 0 mm | - | 42 W/m² | - |
| 1778191832 | 17.78° C | 92% | 1011.6 hPa | 0 mm | - | 32 W/m² | - |
| 1778191530 | 17.78° C | 92% | 1011.3 hPa | 0 mm | - | 46 W/m² | - |
| 1778191227 | 18.33° C | 91% | 1011.4 hPa | 0 mm | - | 41 W/m² | - |
| 1778190923 | 18.33° C | 91% | 1011.2 hPa | 0 mm | - | 53 W/m² | - |
| 1778190621 | 18.33° C | 91% | 1011.3 hPa | 0 mm | - | 49 W/m² | - |
| 1778190318 | 18.33° C | 91% | 1011.2 hPa | 0 mm | - | 51 W/m² | - |
| 1778190014 | 18.33° C | 91% | 1011 hPa | 0 mm | - | 41 W/m² | - |
| 1778189710 | 18.89° C | 90% | 1011.2 hPa | 0 mm | - | 40 W/m² | - |
| 1778189407 | 18.89° C | 89% | 1010.7 hPa | 0 mm | - | 47 W/m² | - |
| 1778189103 | 18.89° C | 89% | 1010.6 hPa | 0 mm | - | 72 W/m² | - |
| 1778188800 | 18.89° C | 89% | 1010.3 hPa | 0 mm | - | 35 W/m² | - |
| 1778188496 | 18.33° C | 90% | 1010.3 hPa | 0 mm | - | 65 W/m² | - |
* Rain latest hour (hover to see other rain measurements)
** Current wind speed in m/s (hover to see current wind gust speed)